No particular awareness of the weather is required.    There are no Weather-warnings


Meteo18 Weather Cam more information Meteo18 Weather Cam


Thunder radar more information blitzortung!


Rain radar more information rain snow radar


Visit our other weather sites:

Template documentation
and downloads

And another site



Weather Underground History page Text

Daily Summary for December 1, 2017 Units:  English    Metric   Both
« Previous Day
Next Day »
Daily Weekly Monthly Yearly Custom
  High: Low: Average:
Temperature: 35.1 °F 31.6 °F 33.1 °F
Dew Point: 33.3 °F 30.2 °F 31.5 °F
Humidity: 95 % 90 % 94 %
Wind Speed: 10 mph 0 mph 3.2 mph
Wind Gust: 19 mph - -
Wind:- - WSW
Pressure: 30.2 in 29.8 in -
Precipitation: 0.12 in    
Historical Graphs
 
 
Tabular Data for December 1, 2017
Time Temperature Dew Point Pressure Wind Wind Speed Wind Gust Humidity Rainfall Rate (Hourly)
00:02 32 °F 30.6 °F 29.8 in WSW 5 mph 9 mph 94 % 0 in
00:12 32 °F 30.6 °F 29.8 in West 3 mph 8 mph 94 % 0 in
00:17 32.2 °F 30.4 °F 29.8 in WNW 2 mph 8 mph 93 % 0 in
00:22 32.2 °F 30.4 °F 29.8 in Calm   6 mph 93 % 0 in
00:32 32.2 °F 30.4 °F 29.8 in WNW 2 mph 5 mph 93 % 0 in
00:37 32.2 °F 30.4 °F 29.8 in Calm   5 mph 93 % 0 in
00:42 32.2 °F 30.4 °F 29.8 in West 2 mph 4 mph 93 % 0 in
01:02 32.2 °F 30.6 °F 29.8 in WNW 2 mph 4 mph 94 % 0 in
01:07 32.2 °F 30.6 °F 29.8 in West 1 mph 3 mph 94 % 0 in
01:12 32.2 °F 30.6 °F 29.8 in Calm   3 mph 94 % 0 in
01:17 32.2 °F 30.6 °F 29.8 in NW 1 mph 2 mph 94 % 0 in
01:27 32 °F 30.7 °F 29.8 in Calm   3 mph 95 % 0 in
01:32 32 °F 30.7 °F 29.8 in WNW 1 mph 3 mph 95 % 0 in
01:37 32 °F 30.7 °F 29.8 in WNW 1 mph 3 mph 95 % 0 in
01:42 32 °F 30.7 °F 29.8 in West 3 mph 3 mph 95 % 0 in
01:52 32 °F 30.7 °F 29.8 in WNW 1 mph 4 mph 95 % 0 in
01:57 32.2 °F 30.9 °F 29.8 in NW 2 mph 5 mph 95 % 0 in
02:07 32.2 °F 30.9 °F 29.8 in NNW 2 mph 5 mph 95 % 0 in
02:12 32.2 °F 30.9 °F 29.8 in NNW 1 mph 5 mph 95 % 0 in
02:17 32.2 °F 30.9 °F 29.8 in NW 1 mph 5 mph 95 % 0 in
02:27 32.2 °F 30.9 °F 29.8 in WSW 2 mph 6 mph 95 % 0 in
02:32 32.2 °F 30.9 °F 29.8 in Calm   6 mph 95 % 0 in
02:42 32.2 °F 30.9 °F 29.8 in Calm   4 mph 95 % 0 in
02:47 32.2 °F 30.9 °F 29.9 in WNW 1 mph 3 mph 95 % 0 in
02:52 32.2 °F 30.9 °F 29.9 in NW 1 mph 4 mph 95 % 0 in
02:57 32.2 °F 30.9 °F 29.9 in NW 2 mph 4 mph 95 % 0 in
03:02 32.2 °F 30.9 °F 29.9 in NW 1 mph 4 mph 95 % 0 in
03:12 32.2 °F 30.9 °F 29.9 in Calm   4 mph 95 % 0 in
03:17 32.2 °F 30.9 °F 29.9 in NNW 5 mph 5 mph 95 % 0 in
03:22 32.2 °F 30.9 °F 29.9 in West 1 mph 5 mph 95 % 0 in
03:32 32.2 °F 30.9 °F 29.9 in NW 1 mph 5 mph 95 % 0 in
03:47 32.2 °F 30.6 °F 29.9 in NNW 1 mph 6 mph 94 % 0 in
03:52 32.2 °F 30.6 °F 29.9 in WNW 4 mph 4 mph 94 % 0 in
04:22 32.2 °F 30.6 °F 29.9 in Calm   3 mph 94 % 0 in
04:32 32.2 °F 30.6 °F 29.9 in Calm   5 mph 94 % 0 in
04:42 32 °F 30.7 °F 29.9 in West 1 mph 5 mph 95 % 0 in
04:57 32 °F 30.7 °F 29.9 in NW 2 mph 5 mph 95 % 0 in
05:02 32 °F 30.7 °F 29.9 in WNW 1 mph 5 mph 95 % 0 in
05:12 32 °F 30.7 °F 29.9 in WNW 1 mph 4 mph 95 % 0 in
05:17 32 °F 30.7 °F 29.9 in Calm   4 mph 95 % 0 in
05:22 32 °F 30.7 °F 29.9 in Calm   4 mph 95 % 0 in
05:27 32 °F 30.6 °F 29.9 in Calm   3 mph 94 % 0 in
05:32 32 °F 30.6 °F 29.9 in West 1 mph 3 mph 94 % 0 in
05:42 31.8 °F 30.4 °F 29.9 in WNW 3 mph 3 mph 94 % 0 in
05:47 31.8 °F 30.4 °F 29.9 in Calm   4 mph 94 % 0 in
05:52 31.8 °F 30.4 °F 29.9 in NW 2 mph 4 mph 94 % 0 in
05:57 31.8 °F 30.4 °F 29.9 in NW 1 mph 4 mph 94 % 0 in
06:02 31.8 °F 30.4 °F 29.9 in WNW 1 mph 4 mph 94 % 0 in
06:12 31.8 °F 30.4 °F 29.9 in WNW 1 mph 5 mph 94 % 0 in
06:17 31.8 °F 30.4 °F 29.9 in West 1 mph 4 mph 94 % 0 in
06:22 31.8 °F 30.4 °F 29.9 in NNW 2 mph 4 mph 94 % 0 in
06:27 31.8 °F 30.4 °F 29.9 in WNW 3 mph 4 mph 94 % 0 in
06:32 31.8 °F 30.4 °F 29.9 in NW 2 mph 4 mph 94 % 0 in
06:37 31.6 °F 30.2 °F 29.9 in Calm   4 mph 94 % 0 in
06:42 31.6 °F 30.2 °F 29.9 in WNW 2 mph 4 mph 94 % 0 in
06:47 31.6 °F 30.2 °F 29.9 in Calm   4 mph 94 % 0 in
06:57 31.6 °F 30.2 °F 29.9 in West 3 mph 5 mph 94 % 0 in
07:02 31.6 °F 30.4 °F 29.9 in WNW 3 mph 5 mph 95 % 0 in
07:07 31.6 °F 30.4 °F 29.9 in WNW 3 mph 7 mph 95 % 0 in
07:27 31.6 °F 30.4 °F 29.9 in WNW 2 mph 6 mph 95 % 0 in
07:32 31.6 °F 30.4 °F 29.9 in WNW 4 mph 6 mph 95 % 0 in
07:37 31.6 °F 30.4 °F 29.9 in West 1 mph 6 mph 95 % 0 in
07:42 31.6 °F 30.4 °F 29.9 in NW 6 mph 6 mph 95 % 0 in
07:52 31.6 °F 30.4 °F 29.9 in WNW 4 mph 6 mph 95 % 0 in
08:07 31.8 °F 30.6 °F 29.9 in NW 4 mph 8 mph 95 % 0 in
08:12 31.8 °F 30.6 °F 29.9 in WNW 4 mph 8 mph 95 % 0 in
08:17 31.8 °F 30.6 °F 29.9 in NW 4 mph 11 mph 95 % 0 in
08:22 32 °F 30.7 °F 29.9 in NNW 5 mph 11 mph 95 % 0 in
08:27 32 °F 30.7 °F 29.9 in WNW 6 mph 10 mph 95 % 0 in
08:32 32 °F 30.7 °F 29.9 in WNW 3 mph 10 mph 95 % 0 in
08:37 32 °F 30.7 °F 29.9 in WNW 1 mph 11 mph 95 % 0 in
08:42 32 °F 30.7 °F 29.9 in WNW 2 mph 11 mph 95 % 0 in
08:47 32 °F 30.6 °F 29.9 in West 1 mph 8 mph 94 % 0 in
08:57 32 °F 30.6 °F 29.9 in WNW 5 mph 13 mph 94 % 0 in
09:07 32.2 °F 30.6 °F 29.9 in WNW 3 mph 13 mph 94 % 0 in
09:12 32.2 °F 30.6 °F 29.9 in WNW 1 mph 13 mph 94 % 0 in
09:17 32.2 °F 30.6 °F 29.9 in WNW 2 mph 9 mph 94 % 0 in
09:22 32.4 °F 30.7 °F 29.9 in West 2 mph 9 mph 94 % 0 in
09:32 32.4 °F 30.7 °F 29.9 in WNW 4 mph 10 mph 94 % 0 in
09:37 32.4 °F 31.1 °F 29.9 in West 5 mph 10 mph 95 % 0 in
09:47 32.2 °F 30.9 °F 29.9 in WNW 3 mph 10 mph 95 % 0 in
09:57 32.4 °F 31.1 °F 29.9 in WNW 3 mph 8 mph 95 % 0 in
10:02 32.4 °F 31.1 °F 29.9 in WNW 2 mph 8 mph 95 % 0 in
10:07 32.4 °F 31.1 °F 29.9 in WNW 2 mph 8 mph 95 % 0 in
10:12 32.5 °F 31.3 °F 29.9 in WNW 2 mph 8 mph 95 % 0 in
10:17 32.5 °F 31.3 °F 29.9 in NW 2 mph 6 mph 95 % 0 in
10:22 32.7 °F 31.5 °F 29.9 in West 2 mph 6 mph 95 % 0 in
10:32 32.7 °F 31.5 °F 29.9 in NNW 4 mph 5 mph 95 % 0 in
10:37 32.7 °F 31.5 °F 29.9 in WNW 2 mph 6 mph 95 % 0 in
10:42 32.7 °F 31.5 °F 29.9 in WNW 3 mph 6 mph 95 % 0 in
10:47 32.7 °F 31.5 °F 29.9 in West 1 mph 6 mph 95 % 0 in
10:52 32.7 °F 31.5 °F 29.9 in WNW 2 mph 6 mph 95 % 0 in
10:57 32.7 °F 31.5 °F 29.9 in Calm   5 mph 95 % 0 in
11:02 32.9 °F 31.6 °F 29.9 in WNW 1 mph 5 mph 95 % 0 in
11:12 33.1 °F 31.8 °F 30 in WNW 2 mph 4 mph 95 % 0 in
11:17 33.1 °F 31.8 °F 30 in WNW 3 mph 4 mph 95 % 0 in
11:22 33.1 °F 31.8 °F 30 in WNW 3 mph 4 mph 95 % 0 in
11:27 33.1 °F 31.8 °F 30 in WNW 3 mph 4 mph 95 % 0 in
11:32 33.1 °F 31.8 °F 30 in NW 4 mph 4 mph 95 % 0 in
11:42 33.3 °F 32 °F 30 in West 1 mph 5 mph 95 % 0 in
11:47 33.4 °F 32.2 °F 30 in WNW 2 mph 5 mph 95 % 0 in
11:57 33.6 °F 32.4 °F 30 in WNW 3 mph 4 mph 95 % 0 in
12:02 33.6 °F 32.4 °F 30 in Calm   4 mph 95 % 0 in
12:12 33.8 °F 32.2 °F 30 in WNW 4 mph 4 mph 94 % 0 in
12:17 33.8 °F 32.5 °F 30 in WNW 3 mph 4 mph 95 % 0 in
12:22 34 °F 32.7 °F 30 in WNW 4 mph 5 mph 95 % 0 in
12:32 34 °F 32.7 °F 30 in NW 2 mph 6 mph 95 % 0.01 in
12:37 34 °F 32.7 °F 30 in WNW 3 mph 6 mph 95 % 0.01 in
12:42 34 °F 32.7 °F 30 in NW 2 mph 8 mph 95 % 0.01 in
13:02 34.2 °F 32.5 °F 30 in North 6 mph 10 mph 94 % 0.02 in
13:07 34.2 °F 32.5 °F 30 in NNW 5 mph 10 mph 94 % 0.02 in
13:12 34.2 °F 32.5 °F 30 in NNW 3 mph 8 mph 94 % 0.03 in
13:17 34.2 °F 32.9 °F 30 in North 3 mph 8 mph 95 % 0.03 in
13:22 34.2 °F 32.5 °F 30 in NNW 4 mph 11 mph 94 % 0.04 in
13:27 34.3 °F 32.7 °F 30 in NW 5 mph 11 mph 94 % 0.03 in
13:32 34.3 °F 32.7 °F 30 in NNW 7 mph 11 mph 94 % 0.04 in
13:37 34.2 °F 32.5 °F 30 in NW 6 mph 11 mph 94 % 0.04 in
13:42 34.3 °F 32.7 °F 30 in North 6 mph 11 mph 94 % 0.04 in
13:52 34.3 °F 32.7 °F 30 in NE 6 mph 10 mph 94 % 0.05 in
14:12 34.5 °F 32.9 °F 30 in NNW 4 mph 11 mph 94 % 0.04 in
14:17 34.7 °F 33.1 °F 30 in NW 5 mph 11 mph 94 % 0.05 in
14:22 34.9 °F 33.3 °F 30 in North 7 mph 11 mph 94 % 0.04 in
14:32 34.7 °F 33.1 °F 30 in NNW 6 mph 11 mph 94 % 0.04 in
14:37 34.7 °F 33.1 °F 30 in North 4 mph 11 mph 94 % 0.03 in
14:42 34.9 °F 33.1 °F 30 in NNE 6 mph 11 mph 93 % 0.03 in
15:02 34.9 °F 33.1 °F 30 in North 6 mph 10 mph 93 % 0.02 in
15:12 34.9 °F 33.1 °F 30 in NNW 6 mph 9 mph 93 % 0.02 in
15:22 34.9 °F 33.1 °F 30 in West 2 mph 9 mph 93 % 0.02 in
15:27 34.9 °F 33.1 °F 30 in North 8 mph 9 mph 93 % 0.02 in
15:42 34.9 °F 33.1 °F 30 in NNE 5 mph 8 mph 93 % 0.02 in
15:52 34.9 °F 33.1 °F 30 in NNW 3 mph 7 mph 93 % 0.02 in
15:57 34.9 °F 33.1 °F 30 in NNW 3 mph 7 mph 93 % 0.02 in
16:02 34.9 °F 33.1 °F 30 in NNW 3 mph 7 mph 93 % 0.02 in
16:07 35.1 °F 33.3 °F 30 in NNW 4 mph 6 mph 93 % 0.02 in
16:12 34.9 °F 33.1 °F 30 in NNW 3 mph 6 mph 93 % 0.01 in
16:22 34.9 °F 33.1 °F 30 in NNE 1 mph 7 mph 93 % 0.01 in
16:32 34.7 °F 32.9 °F 30 in NW 4 mph 7 mph 93 % 0.01 in
16:42 34.7 °F 32.5 °F 30 in NE 5 mph 9 mph 92 % 0.01 in
16:52 34.3 °F 32.2 °F 30 in North 6 mph 11 mph 92 % 0.01 in
16:57 34.3 °F 32 °F 30 in North 6 mph 12 mph 91 % 0.01 in
17:12 34.2 °F 31.8 °F 30 in NNW 2 mph 12 mph 91 % 0.01 in
17:17 34 °F 31.6 °F 30 in North 2 mph 11 mph 91 % 0.01 in
17:22 33.8 °F 31.5 °F 30 in NNE 4 mph 10 mph 91 % 0.01 in
17:27 33.6 °F 31.5 °F 30.1 in North 2 mph 7 mph 92 % 0.01 in
17:32 33.6 °F 31.5 °F 30.1 in NW 1 mph 7 mph 92 % 0.01 in
17:37 33.6 °F 31.5 °F 30.1 in NNW 1 mph 7 mph 92 % 0 in
17:47 33.4 °F 31.6 °F 30.1 in NNW 1 mph 6 mph 93 % 0 in
17:52 33.6 °F 31.8 °F 30.1 in North 3 mph 5 mph 93 % 0 in
18:02 34 °F 32.2 °F 30.1 in NNE 2 mph 7 mph 93 % 0 in
18:07 34 °F 32.2 °F 30.1 in NNW 5 mph 7 mph 93 % 0 in
18:12 34.2 °F 32.4 °F 30.1 in WNW 7 mph 8 mph 93 % 0 in
18:22 34.3 °F 32.5 °F 30.1 in North 4 mph 10 mph 93 % 0 in
18:27 34.3 °F 32.5 °F 30.1 in NNW 4 mph 10 mph 93 % 0 in
18:32 34.5 °F 32.7 °F 30.1 in North 2 mph 10 mph 93 % 0 in
18:42 34.3 °F 32.2 °F 30.1 in NW 5 mph 8 mph 92 % 0 in
18:47 34.2 °F 32 °F 30.1 in North 4 mph 8 mph 92 % 0 in
18:52 34 °F 31.8 °F 30.1 in North 3 mph 8 mph 92 % 0 in
18:57 34 °F 31.8 °F 30.1 in NNW 5 mph 9 mph 92 % 0 in
19:17 33.6 °F 31.8 °F 30.1 in NNW 8 mph 11 mph 93 % 0 in
19:22 34 °F 32.2 °F 30.1 in North 6 mph 12 mph 93 % 0 in
19:27 34 °F 32.2 °F 30.1 in NNE 4 mph 12 mph 93 % 0 in
19:52 34.2 °F 32.4 °F 30.1 in NNE 9 mph 10 mph 93 % 0 in
20:17 34.7 °F 32.4 °F 30.1 in NW 7 mph 19 mph 91 % 0 in
20:22 34.7 °F 32.4 °F 30.1 in North 9 mph 19 mph 91 % 0 in
20:27 34.7 °F 32.4 °F 30.1 in NNW 9 mph 19 mph 91 % 0 in
20:32 34.7 °F 32 °F 30.1 in NW 6 mph 18 mph 90 % 0 in
20:37 34.7 °F 32 °F 30.1 in North 4 mph 17 mph 90 % 0 in
20:42 34.5 °F 32.2 °F 30.1 in North 10 mph 17 mph 91 % 0 in
20:52 34 °F 31.8 °F 30.1 in NE 7 mph 15 mph 92 % 0 in
20:57 33.6 °F 31.8 °F 30.1 in NE 6 mph 15 mph 93 % 0 in
21:02 33.6 °F 31.8 °F 30.1 in North 4 mph 16 mph 93 % 0 in
21:07 33.8 °F 32 °F 30.1 in NNE 3 mph 16 mph 93 % 0 in
21:17 33.8 °F 32 °F 30.1 in North 4 mph 9 mph 93 % 0 in
21:22 33.6 °F 31.8 °F 30.1 in North 9 mph 10 mph 93 % 0 in
21:32 33.6 °F 31.8 °F 30.1 in North 7 mph 10 mph 93 % 0 in
21:37 33.6 °F 31.8 °F 30.1 in NNW 8 mph 13 mph 93 % 0 in
21:42 33.6 °F 31.8 °F 30.1 in NNW 4 mph 14 mph 93 % 0 in
21:47 33.8 °F 31.6 °F 30.1 in NE 7 mph 14 mph 92 % 0 in
22:02 33.6 °F 31.5 °F 30.1 in NNW 7 mph 12 mph 92 % 0 in
22:07 33.6 °F 31.5 °F 30.1 in North 4 mph 12 mph 92 % 0 in
22:17 33.4 °F 31.3 °F 30.1 in NNE 4 mph 12 mph 92 % 0 in
22:22 33.6 °F 31.5 °F 30.1 in NW 3 mph 12 mph 92 % 0 in
22:32 33.6 °F 31.5 °F 30.1 in NNE 5 mph 10 mph 92 % 0 in
22:42 33.6 °F 31.5 °F 30.1 in NNW 3 mph 12 mph 92 % 0 in
22:52 33.4 °F 31.3 °F 30.1 in NNW 9 mph 12 mph 92 % 0 in
23:07 33.4 °F 31.3 °F 30.1 in North 10 mph 15 mph 92 % 0 in
23:32 33.3 °F 31.1 °F 30.1 in NNE 4 mph 11 mph 92 % 0 in
23:42 33.1 °F 31.1 °F 30.2 in NNE 2 mph 11 mph 92 % 0 in
23:52 32.9 °F 30.9 °F 30.2 in NNE 7 mph 12 mph 92 % 0 in
23:57 32.7 °F 30.7 °F 30.2 in NE 5 mph 12 mph 92 % 0 in
Meteo18
Compliments of Weather Underground - 4 mb

Script developed by  Jim McMurry - jmcmurry@mwt.net Adapted for the template by  Wim van der Kuil - Leuven-Template.eu

You find our weather info also at:

European Weather Network

Weather Underground

Equipment we use:

Weather-station
Davis Vue

Weather-program
Meteohub

Weather-server
Raspberry PI 2 B+

Provider
1 and 1

Davis Vue

Meteohub

Raspberry PI 2 B+

1 and 1